| time (UTC) | temp F | wind direction | speed knots | gust knots | rain 1hr in | rain 24hr in | rain mn in | humidity % | barometer mb |
| 20260510210053 | 46 | 266 | 0.0 | 3.5 | 0.00 | 0.00 | 0.00 | 69 | 1016.0 |
| 20260510204605 | 47 | 139 | 3.5 | 4.3 | 0.00 | 0.00 | 0.00 | 69 | 1016.0 |
| 20260510203054 | 47 | 114 | 3.5 | 4.3 | 0.00 | 0.00 | 0.00 | 68 | 1015.9 |
| 20260510201553 | 47 | 116 | 2.6 | 4.3 | 0.00 | 0.00 | 0.00 | 69 | 1016.1 |
| 20260510200056 | 48 | 118 | 3.5 | 4.3 | 0.00 | 0.00 | 0.00 | 66 | 1016.3 |
| 20260510194559 | 49 | 115 | 3.5 | 5.2 | 0.00 | 0.00 | 0.00 | 64 | 1016.3 |
| 20260510193104 | 49 | 124 | 4.3 | 6.1 | 0.00 | 0.00 | 0.00 | 61 | 1016.5 |
| 20260510191603 | 50 | 77 | 4.3 | 6.1 | 0.00 | 0.00 | 0.00 | 61 | 1016.6 |
| 20260510190104 | 51 | 91 | 5.2 | 7.8 | 0.00 | 0.00 | 0.00 | 59 | 1016.7 |
| 20260510184552 | 51 | 89 | 5.2 | 7.8 | 0.00 | 0.00 | 0.00 | 59 | 1016.8 |
| 20260510183052 | 51 | 78 | 7.8 | 10.4 | 0.00 | 0.00 | 0.00 | 57 | 1017.0 |
| 20260510181558 | 52 | 82 | 8.7 | 11.3 | 0.00 | 0.00 | 0.00 | 55 | 1016.9 |
| 20260510180103 | 52 | 40 | 6.1 | 10.4 | 0.00 | 0.00 | 0.00 | 55 | 1017.0 |
| 20260510174601 | 52 | 26 | 6.1 | 7.8 | 0.00 | 0.00 | 0.00 | 54 | 1017.3 |
| 20260510173115 | 52 | 36 | 7.0 | 9.6 | 0.00 | 0.00 | 0.00 | 60 | 1017.5 |
| 20260510171553 | 52 | 52 | 7.8 | 13.0 | 0.00 | 0.00 | 0.00 | 54 | 1017.6 |
| 20260510170106 | 52 | 51 | 5.2 | 9.6 | 0.00 | 0.00 | 0.00 | 55 | 1017.7 |
| 20260510164612 | 52 | 324 | 5.2 | 10.4 | 0.00 | 0.00 | 0.00 | 54 | 1017.8 |
| 20260510163052 | 52 | 44 | 10.4 | 16.5 | 0.00 | 0.00 | 0.00 | 53 | 1018.2 |
| 20260510161558 | 52 | 46 | 6.1 | 12.2 | 0.00 | 0.00 | 0.00 | 53 | 1018.3 |
| 20260510160058 | 52 | 25 | 13.0 | 16.5 | 0.00 | 0.00 | 0.00 | 57 | 1018.5 |
| 20260510154557 | 52 | 48 | 8.7 | 14.8 | 0.00 | 0.00 | 0.00 | 53 | 1018.7 |
| 20260510153058 | 52 | 49 | 10.4 | 16.5 | 0.00 | 0.00 | 0.00 | 56 | 1018.7 |
| 20260510151600 | 52 | 38 | 10.4 | 14.8 | 0.00 | 0.00 | 0.00 | 53 | 1018.9 |
| 20260510150100 | 52 | 51 | 15.6 | 21.7 | 0.00 | 0.00 | 0.00 | 54 | 1019.2 |
| 20260510144555 | 52 | 31 | 13.9 | 18.2 | 0.00 | 0.00 | 0.00 | 54 | 1019.3 |
| 20260510143054 | 52 | 54 | 12.2 | 16.5 | 0.00 | 0.00 | 0.00 | 54 | 1019.5 |
| 20260510141556 | 52 | 59 | 10.4 | 17.4 | 0.00 | 0.00 | 0.00 | 51 | 1019.7 |
| 20260510140054 | 52 | 44 | 11.3 | 16.5 | 0.00 | 0.00 | 0.00 | 56 | 1019.8 |
| 20260510134556 | 52 | 34 | 10.4 | 20.9 | 0.00 | 0.00 | 0.00 | 57 | 1019.9 |
| 20260510133100 | 52 | 18 | 11.3 | 17.4 | 0.00 | 0.00 | 0.00 | 56 | 1020.0 |
| 20260510131555 | 52 | 46 | 10.4 | 16.5 | 0.00 | 0.00 | 0.00 | 55 | 1020.0 |
| 20260510130057 | 52 | 56 | 13.0 | 16.5 | 0.00 | 0.00 | 0.00 | 55 | 1020.1 |
| 20260510124553 | 51 | 43 | 10.4 | 16.5 | 0.00 | 0.00 | 0.00 | 54 | 1020.2 |
| 20260510123052 | 52 | 16 | 9.6 | 14.8 | 0.00 | 0.00 | 0.00 | 58 | 1020.4 |
| 20260510121555 | 52 | 38 | 9.6 | 19.1 | 0.00 | 0.00 | 0.00 | 59 | 1020.5 |
| 20260510120055 | 52 | 40 | 12.2 | 17.4 | 0.00 | 0.00 | 0.00 | 57 | 1020.5 |
| 20260510114604 | 52 | 43 | 12.2 | 14.8 | 0.00 | 0.00 | 0.00 | 57 | 1020.7 |
| 20260510113056 | 51 | 17 | 11.3 | 19.1 | 0.00 | 0.00 | 0.00 | 58 | 1020.8 |
| 20260510111555 | 51 | 47 | 9.6 | 21.7 | 0.00 | 0.00 | 0.00 | 60 | 1021.1 |
| 20260510110058 | 51 | 51 | 12.2 | 18.2 | 0.00 | 0.00 | 0.00 | 60 | 1021.3 |
| 20260510104609 | 51 | 51 | 13.0 | 19.1 | 0.00 | 0.00 | 0.00 | 60 | 1021.6 |
| 20260510103057 | 51 | 74 | 9.6 | 15.6 | 0.00 | 0.00 | 0.00 | 64 | 1021.7 |
| 20260510101552 | 50 | 36 | 8.7 | 16.5 | 0.00 | 0.00 | 0.00 | 65 | 1021.8 |
| 20260510100058 | 50 | 29 | 14.8 | 20.0 | 0.00 | 0.00 | 0.00 | 65 | 1021.9 |
| 20260510094555 | 50 | 22 | 9.6 | 18.2 | 0.00 | 0.00 | 0.00 | 69 | 1021.9 |
| 20260510093058 | 50 | 48 | 11.3 | 18.2 | 0.00 | 0.00 | 0.00 | 69 | 1022.0 |
| 20260510091600 | 49 | 57 | 13.9 | 17.4 | 0.00 | 0.00 | 0.00 | 68 | 1022.0 |
| 20260510084558 | 50 | 35 | 7.8 | 16.5 | 0.00 | 0.00 | 0.00 | 75 | 1022.1 |
| 20260510083100 | 48 | 40 | 13.0 | 16.5 | 0.00 | 0.00 | 0.00 | 72 | 1022.2 |
| 20260510081554 | 48 | 41 | 11.3 | 16.5 | 0.00 | 0.00 | 0.00 | 77 | 1022.2 |
| 20260510080057 | 48 | 357 | 11.3 | 14.8 | 0.00 | 0.00 | 0.00 | 77 | 1022.3 |
| 20260510074625 | 47 | 41 | 12.2 | 15.6 | 0.00 | 0.00 | 0.00 | 79 | 1022.2 |
| 20260510073054 | 47 | 21 | 9.6 | 15.6 | 0.00 | 0.00 | 0.00 | 83 | 1022.2 |
| 20260510071559 | 46 | 20 | 8.7 | 15.6 | 0.00 | 0.00 | 0.00 | 83 | 1022.2 |
| 20260510070053 | 46 | 33 | 8.7 | 14.8 | 0.00 | 0.00 | 0.00 | 83 | 1022.2 |
| 20260510064609 | 46 | 32 | 10.4 | 13.9 | 0.00 | 0.00 | 0.00 | 84 | 1022.2 |
| 20260510063101 | 46 | 38 | 9.6 | 12.2 | 0.00 | 0.00 | 0.00 | 85 | 1022.2 |
| 20260510061553 | 46 | 27 | 7.8 | 13.9 | 0.00 | 0.00 | 0.00 | 85 | 1022.1 |
| 20260510060058 | 46 | 1 | 8.7 | 13.0 | 0.00 | 0.00 | 0.00 | 85 | 1022.2 |
| 20260510054553 | 45 | 357 | 7.8 | 13.9 | 0.00 | 0.00 | 0.00 | 86 | 1022.0 |
| 20260510053054 | 45 | 44 | 8.7 | 12.2 | 0.00 | 0.00 | 0.00 | 86 | 1022.1 |
| 20260510051601 | 45 | 352 | 8.7 | 13.0 | 0.00 | 0.00 | 0.00 | 85 | 1022.2 |
| 20260510050053 | 46 | 27 | 7.0 | 12.2 | 0.00 | 0.00 | 0.00 | 86 | 1022.2 |
| 20260510044557 | 46 | 350 | 7.8 | 11.3 | 0.00 | 0.00 | 0.00 | 86 | 1022.2 |
| 20260510043103 | 46 | 338 | 7.8 | 11.3 | 0.00 | 0.00 | 0.00 | 86 | 1021.9 |
| 20260510041612 | 46 | 328 | 6.1 | 12.2 | 0.00 | 0.00 | 0.00 | 86 | 1021.9 |
| 20260510040055 | 46 | 30 | 7.0 | 11.3 | 0.00 | 0.00 | 0.00 | 87 | 1021.9 |
| 20260510034553 | 46 | 7 | 7.0 | 10.4 | 0.00 | 0.00 | 0.00 | 87 | 1022.1 |
| 20260510033056 | 46 | 329 | 7.0 | 12.2 | 0.00 | 0.00 | 0.00 | 87 | 1022.4 |
| 20260510031559 | 47 | 344 | 6.1 | 13.0 | 0.00 | 0.00 | 0.00 | 87 | 1022.4 |
| 20260510030057 | 47 | 349 | 7.0 | 12.2 | 0.00 | 0.00 | 0.00 | 87 | 1022.5 |
| 20260510024559 | 47 | 36 | 7.8 | 13.0 | 0.00 | 0.00 | 0.00 | 87 | 1022.5 |
| 20260510023053 | 47 | 35 | 8.7 | 13.0 | 0.00 | 0.00 | 0.00 | 87 | 1022.5 |
| 20260510021552 | 47 | 12 | 7.8 | 12.2 | 0.00 | 0.00 | 0.00 | 87 | 1022.5 |
| 20260510020055 | 47 | 345 | 8.7 | 14.8 | 0.00 | 0.00 | 0.00 | 88 | 1022.4 |
| 20260510014549 | 48 | 10 | 8.7 | 14.8 | 0.00 | 0.00 | 0.00 | 88 | 1022.5 |
| 20260510013108 | 48 | 15 | 7.8 | 12.2 | 0.00 | 0.00 | 0.00 | 89 | 1022.4 |
| 20260510011552 | 48 | 1 | 8.7 | 13.0 | 0.00 | 0.00 | 0.00 | 89 | 1022.4 |
| 20260510010105 | 48 | 27 | 7.8 | 13.0 | 0.00 | 0.00 | 0.00 | 89 | 1022.4 |
| 20260510004600 | 48 | 335 | 9.6 | 13.9 | 0.00 | 0.00 | 0.00 | 90 | 1022.4 |
| 20260510003056 | 48 | 25 | 7.8 | 14.8 | 0.00 | 0.00 | 0.00 | 90 | 1022.4 |
| 20260510001600 | 48 | 15 | 10.4 | 16.5 | 0.00 | 0.00 | 0.00 | 90 | 1022.5 |
| 20260510000104 | 48 | 12 | 9.6 | 14.8 | 0.00 | 0.00 | 0.00 | 91 | 1022.7 |
| 20260509234605 | 48 | 8 | 10.4 | 16.5 | 0.00 | 0.00 | 0.00 | 90 | 1022.7 |
| 20260509233055 | 48 | 41 | 11.3 | 15.6 | 0.00 | 0.00 | 0.00 | 91 | 1022.6 |
| 20260509231553 | 48 | 16 | 7.0 | 13.9 | 0.00 | 0.00 | 0.00 | 90 | 1022.6 |
| 20260509230054 | 49 | 350 | 7.8 | 13.9 | 0.00 | 0.00 | 0.00 | 90 | 1022.6 |
| 20260509224552 | 49 | 360 | 9.6 | 15.6 | 0.00 | 0.00 | 0.00 | 89 | 1022.5 |
| 20260509223057 | 49 | 10 | 11.3 | 15.6 | 0.00 | 0.00 | 0.00 | 88 | 1022.3 |
| 20260509221612 | 49 | 4 | 8.7 | 16.5 | 0.00 | 0.00 | 0.00 | 88 | 1022.2 |
| 20260509220105 | 50 | 13 | 10.4 | 16.5 | 0.00 | 0.00 | 0.00 | 89 | 1022.2 |
| 20260509214558 | 50 | 25 | 8.7 | 14.8 | 0.00 | 0.00 | 0.00 | 89 | 1022.3 |
| 20260509213102 | 50 | 12 | 11.3 | 17.4 | 0.00 | 0.00 | 0.00 | 89 | 1022.2 |
| 20260509211559 | 50 | 38 | 7.0 | 11.3 | 0.00 | 0.00 | 0.00 | 89 | 1022.2 |